SCP
0 0 0 0 0 0 0 0 0 0 0 0 0 0 0 0 0 0 0 0 0 0 0 0 0 0 0 0 0 0 0 0 0 0 0 0 0 0 0 0 0 0 0
0 0 0 0 0 0 0 0 0 0 0 0 0 0 0 0 0 0 0 0 0 0 0 0 0 0 0 0 0 0 0 0 0 0 0 0 0 0 0 0 0 0 0
0 0 0 0 0 0 0 0 0 0 0 0 0 0 0 0 0 0 0 0 0 0 0 0 0 0 0 0 0 0 0 0 0 0 0 0 0 0 0 0 0 0 0
0 0 0 0 0 0 0 0 0 0 0 0 0 0 0 0 0 0 0 0 0 0 0 0 0 0 0 0 0 0 0 0 0 0 0 0 0 0 0 0 0 0 0
0 0 0 0 0 0 0 0 0 0 0 0 0 0 0 0 0 0 0 0 0 0 0 0 0 0 0 0 0 0 0 0 0 0 0 0 0 0 0 0 0 0 0
0 0 0 0 0 0 0 0 0 0 0 0 0 0 0 0 0 0 0 0 0 0 0 0 0 0 0 0 0 0 0 0 0 0 0 0 0 0 0 0 0 0 0
0 0 0 0 0 0 0 0 0 0 0 0 0 0 0 0 0 0 0 0 0 0 0 0 0 0 0 0 0 0 0 0 0 0 0 0 0 0 0 0 0 0 0
0 0 0 0 0 0 0 0 0 0 0 0 0 0 0 0 0 0 0 0 0 0 0 0 0 0 0 0 0 0 0 0 0 0 0 0 0 0 0 0 0 0 0
0 0 0 0 0 0 0 0 0 0 0 0 0 0 0 0 0 0 0 0 0 0 0 0 0 0 0 0 0 0 0 0 0 0 0 0 0 0 0 0 0 0 0
0 0 0 0 0 0 0 0 0 0 0 0 0 0 0 0 0 0 0 0 0 0 0 0 0 0 0 0 0 0 0 0 0 0 0 0 0 0 0 0 0 0 0
0 0 0 0 0 0 0 0 0 0 0 0 0 0 0 0 0 0 0 0 0 0 0 0 0 0 0 0 0 0 0 0 0 0 0 0 0 0 0 0 0 0 0
0 0 0 0 0 0 0 0 0 0 0 0 0 0 0 0 0 0 0 0 0 0 0 0 0 0 0 0 0 0 0 0 0 0 0 0 0 0 0 0 0 0 0
0 0 0 0 0 0 0 0 0 0 0 0 0 0 0 0 0 0 0 0 0 0 0 0 0 0 0 0 0 0 0 0 0 0 0 0 0 0 0 0 0 0 0
0 0 0 0 0 0 0 0 0 0 0 0 0 0 0 0 0 0 0 0 0 0 0 0 0 0 0 0 0 0 0 0 0 0 0 0 0 0 0 0 0 0 0
0 0 0 0 0 0 0 0 0 0 0 0 0 0 0 0 0 0 0 0 0 0 0 0 0 0 0 0 0 0 0 0 0 0 0 0 0 0 0 0 0 0 0
0 0 0 0 0 0 0 0 0 0 0 0 0 0 0 0 0 0 0 0 0 0 0 0 0 0 0 0 0 0 0 0 0 0 0 0 0 0 0 0 0 0 0
0 0 0 0 0 0 0 -0 -0 0 0 0 0 0 0 0 0 0 0 0 0 0 0 0 0 0 0 0 0 0 0 0 0 0 0 0 0 0 0 0 0 0 0
0 0 0 0 0 0 0 0 0 0 0 0 0 -0 -0 -0 0 0 0 0 0 0 0 0 0 0 0 0 0 0 0 0 0 0 0 0 0 0 0 0 0 0 0
0 0 0 0 0 0 0 0 0 0 0 0 0 -0 -0 -0 -0 0 0 0 0 0 0 0 0 0 0 0 0 0 0 0 0 0 0 0 0 0 0 0 0 0 0
0 0 0 0 0 0 0 0 0 0 0 0 0 0 -0 -0 0 0 0 0 0 0 0 0 0 0 0 0 0 0 0 0 0 0 0 0 0 0 0 0 0 0 0
0 0 0 0 0 0 0 0 0 0 0 0 0 0 0 0 0 0 0 0 0 0 0 0 0 0 0 0 0 0 0 0 0 0 0 0 0 0 0 0 0 0 0
0 0 0 0 0 0 0 0 0 0 0 0 0 -0 -0 0 0 0 0 0 0 0 0 0 0 0 0 0 0 0 0 0 0 0 0 0 0 0 0 0 0 0 0
0 0 0 0 0 0 0 0 0 0 0 0 -0 -0 -0 -0 0 0 0 0 0 0 0 0 0 0 0 0 0 0 0 0 0 0 0 0 0 0 0 0 0 0 0
0 0 0 0 0 0 0 0 0 0 0 0 0 0 -0 0 0 0 0 0 0 0 0 0 0 0 0 0 0 0 0 0 0 0 0 0 0 0 0 0 0 0 0
0 0 0 0 0 0 0 0 0 0 0 0 0 0 0 0 0 0 0 0 0 0 0 0 0 0 0 0 0 0 0 0 0 0 0 0 0 0 0 0 0 0 0
0 0 0 0 0 0 0 0 0 0 0 0 0 0 0 0 0 0 0 0 0 0 0 0 0 0 0 0 0 0 0 0 0 0 0 0 0 0 0 0 0 0 0
Wind_Speed
2 3 5 4 6 6 7 8 8 9 9 9 9 9 9 10 10 10 10 9 9 9 9 8 8 8 8 8 7 7 8 9 9 9 9 9 9 9 8 7 5 8 9
3 4 6 5 6 7 8 9 9 9 9 9 9 9 10 10 10 10 10 10 9 9 9 9 9 9 8 8 7 8 8 9 9 8 7 8 10 9 9 9 8 8 9
4 5 6 6 6 8 8 9 9 10 10 10 10 10 10 10 10 10 10 9 10 10 9 9 10 9 9 8 8 9 9 9 8 6 3 6 9 10 10 9 9 10 9
5 5 6 7 7 8 9 9 9 9 10 10 10 10 10 10 10 10 10 9 9 10 10 10 10 11 10 10 10 10 10 9 7 2 4 7 7 10 9 9 9 9 9
5 5 8 8 8 9 9 9 9 9 9 9 9 10 10 10 10 10 10 10 10 10 10 10 10 11 11 12 12 11 10 8 5 4 7 7 7 9 9 9 9 9 8
6 6 9 8 9 9 9 9 9 9 9 9 9 9 9 9 10 9 10 10 10 10 10 10 10 11 11 12 12 11 10 6 3 6 6 6 7 9 9 9 9 8 8
6 7 8 8 8 8 9 9 8 8 8 9 9 9 9 9 9 9 9 9 10 10 10 9 9 11 11 11 11 10 8 5 6 6 6 7 8 9 8 9 8 8 8
6 6 7 8 7 8 8 8 8 8 8 8 9 9 9 9 9 9 9 9 9 9 9 9 10 11 11 11 11 10 9 6 6 7 7 7 9 8 8 8 8 8 8
6 6 6 6 7 8 8 8 8 8 8 8 8 8 9 9 9 9 9 9 9 9 9 10 11 11 11 11 11 10 9 6 6 6 7 7 9 9 9 9 9 9 9
6 6 6 6 5 7 8 9 8 8 8 8 8 8 7 8 8 7 8 9 9 9 10 10 10 11 11 11 10 9 5 2 8 7 6 8 10 10 10 10 10 10 9
5 5 6 6 6 6 7 8 7 7 6 5 7 6 2 4 6 6 10 9 9 10 10 10 9 9 9 10 9 6 3 5 7 7 7 10 10 10 10 10 10 10 10
6 5 5 5 5 6 5 5 4 5 4 3 4 5 4 4 5 6 9 8 9 9 9 8 7 6 3 5 6 2 4 7 6 6 8 11 10 10 10 10 10 10 10
6 5 5 5 5 4 4 3 3 3 3 4 4 5 4 4 3 3 3 5 5 5 5 6 4 4 5 5 5 6 7 6 5 6 9 12 11 11 11 10 10 9 9
5 5 4 4 4 4 4 3 3 3 3 3 3 4 3 2 2 3 2 3 3 3 4 4 4 6 6 7 7 8 8 6 6 5 9 13 12 11 11 11 11 10 9
5 5 4 3 4 3 4 3 3 3 3 4 3 3 4 2 2 3 3 3 3 3 4 4 4 5 6 7 7 8 8 8 8 7 6 13 14 13 12 12 12 11 10
5 5 5 4 4 3 3 3 3 3 3 3 3 3 4 3 2 2 3 3 3 4 4 4 5 5 5 6 7 8 7 7 8 7 7 9 13 14 13 13 12 12 11
5 5 5 4 4 4 4 3 2 2 3 3 2 3 3 3 2 3 3 3 3 4 4 4 6 5 5 5 7 7 7 7 7 8 7 6 7 12 14 14 13 12 12
5 5 5 4 4 4 3 3 2 2 3 2 2 2 3 3 3 3 3 3 4 3 3 4 3 4 4 4 5 5 5 5 7 7 7 7 6 6 10 14 14 14 12
5 5 6 5 4 4 3 3 2 3 2 2 2 2 2 2 2 3 2 3 3 3 3 3 3 3 5 5 5 5 5 6 6 6 7 8 8 7 6 9 13 15 14
5 5 5 5 5 5 3 3 3 2 2 2 2 2 2 2 2 2 2 3 3 3 2 3 5 4 4 4 5 5 5 5 5 6 6 6 7 8 7 7 6 9 13
6 5 4 4 4 4 3 3 3 2 1 2 2 2 2 1 1 2 1 2 2 2 2 3 4 5 3 3 3 4 5 6 5 5 5 5 7 7 7 7 6 5 6
7 6 5 4 4 4 2 2 2 2 2 1 1 1 2 2 1 1 2 2 2 2 3 3 3 2 2 1 1 1 2 3 4 4 4 5 5 5 6 7 7 7 6
7 6 5 5 5 4 4 3 3 3 2 2 2 1 1 2 2 0 1 2 2 3 2 2 2 2 2 1 1 1 0 1 3 3 5 4 5 4 5 5 7 7 7
7 6 6 6 5 5 5 4 4 3 3 2 2 2 2 2 2 1 0 1 2 2 2 2 2 2 2 1 1 0 1 1 1 2 3 4 4 5 5 4 5 6 6
7 7 6 6 6 6 5 5 4 3 2 2 2 3 2 2 2 1 1 1 2 1 2 2 1 1 1 1 1 1 1 1 1 1 2 2 3 3 3 4 4 4 5
6 6 6 6 6 5 5 6 5 4 4 4 3 3 2 2 2 2 1 1 1 1 1 1 1 1 1 0 1 1 1 1 1 1 1 2 2 3 3 3 3 3 3
Wind_Direction
66 66 71 61 72 74 76 81 82 80 81 84 89 90 90 88 87 89 88 87 85 83 79 75 72 73 74 74 73 77 81 78 79 80 77 72 68 67 67 69 77 86 84
85 81 82 67 73 76 79 79 80 81 80 83 86 87 89 87 86 85 86 84 83 82 77 73 72 72 72 72 73 79 81 77 78 80 88 91 76 70 70 68 54 74 81
87 85 94 80 76 81 80 81 82 83 83 86 86 88 90 89 86 84 83 83 81 80 76 73 71 71 69 66 77 82 78 75 76 82 104 86 86 75 71 71 71 78 80
85 81 82 85 83 84 84 83 83 82 83 85 85 85 87 88 88 84 81 82 81 78 75 72 71 69 66 63 79 82 76 73 70 56 77 70 77 77 75 74 75 78 80
88 83 86 84 85 84 85 83 79 78 81 83 84 84 86 88 87 84 82 81 81 77 71 69 71 71 69 67 73 76 74 71 70 55 62 64 70 73 73 73 73 75 77
92 87 88 80 82 82 84 83 79 77 79 82 81 82 85 86 84 83 82 79 79 76 72 71 72 72 72 72 73 72 69 58 68 66 66 67 71 70 69 70 71 71 73
94 92 91 83 86 84 84 83 82 80 78 79 80 81 83 84 82 80 79 78 76 76 74 74 75 73 74 74 72 67 61 38 61 69 66 66 67 68 70 73 76 75 74
99 98 100 96 85 86 86 85 84 81 77 77 78 79 79 80 81 82 79 78 77 78 77 76 77 76 76 74 70 64 50 15 68 66 65 65 63 68 71 74 78 77 76
103 100 102 105 106 103 91 84 84 82 79 77 77 76 79 79 77 79 80 77 79 83 81 79 77 76 75 72 69 64 57 30 54 57 63 64 63 69 73 76 76 74 73
105 102 103 99 100 108 107 92 85 82 80 79 75 72 82 96 92 87 88 78 78 81 84 85 83 83 79 73 66 60 47 42 57 57 54 63 64 70 73 75 74 72 72
110 107 105 105 102 102 100 105 108 103 93 109 101 93 111 94 90 92 71 75 78 80 82 83 86 87 91 84 68 56 41 53 58 54 51 54 59 66 70 71 71 70 71
120 114 111 109 109 107 101 109 102 98 100 89 86 88 79 76 72 75 90 84 84 89 92 88 99 114 111 90 91 76 62 62 56 60 54 50 59 65 68 70 70 71 71
121 122 126 123 113 108 108 98 92 91 90 81 76 87 80 80 94 86 99 117 113 118 101 106 116 82 80 73 64 66 57 57 54 54 54 50 57 62 64 68 70 70 70
128 127 126 128 125 118 108 99 98 94 90 84 76 75 82 74 72 79 78 75 88 92 90 88 81 84 78 76 72 70 67 59 58 58 56 51 57 61 62 64 65 68 70
140 135 127 137 126 119 107 102 101 90 81 85 71 66 74 78 80 87 87 83 83 89 94 90 86 85 81 72 66 66 66 64 61 62 66 56 54 57 60 63 61 63 68
151 144 137 146 133 132 123 113 95 90 95 84 76 72 76 77 80 85 87 85 83 81 81 87 84 82 80 76 71 68 64 64 61 61 64 69 58 52 55 59 59 59 63
155 150 146 145 141 137 121 102 98 96 90 85 85 76 80 73 80 90 88 93 92 90 91 85 87 83 84 86 80 71 64 60 62 64 62 58 65 62 53 53 55 57 60
166 156 150 157 156 143 126 115 112 98 86 87 89 74 75 75 71 81 90 92 94 91 89 91 94 94 89 82 76 71 71 65 58 58 62 62 56 55 60 53 51 51 54
169 166 164 161 162 149 136 134 109 95 88 84 79 75 60 64 77 97 91 96 101 103 103 102 94 90 92 90 87 78 68 63 57 59 61 59 59 56 60 67 59 51 49
169 172 165 155 164 156 158 146 121 102 96 81 72 59 52 61 73 92 115 116 110 112 108 106 101 93 90 95 89 81 74 74 62 54 55 60 55 54 53 55 60 62 52
171 172 160 166 165 168 163 161 154 142 128 99 81 70 70 67 82 96 120 122 123 127 128 125 118 116 113 111 111 104 93 76 68 63 53 57 63 57 58 57 51 50 64
178 173 169 176 173 173 169 160 148 126 129 102 93 75 69 77 84 127 165 144 141 133 143 139 141 145 129 156 175 157 139 117 79 62 64 58 56 58 56 58 58 55 51
189 180 182 186 178 175 168 158 146 141 158 160 148 114 69 66 73 62 145 142 151 162 157 171 173 181 178 183 277 305 298 95 114 94 71 67 58 55 58 55 57 55 57
192 184 190 187 186 179 176 177 173 174 170 160 143 131 133 106 98 82 150 159 167 163 163 187 205 217 222 213 164 340 9 78 186 135 114 84 66 55 52 54 54 54 55
190 187 192 187 186 181 186 180 194 186 159 141 133 140 147 121 111 112 134 159 164 165 166 177 198 230 240 271 250 171 138 149 222 176 134 120 100 73 54 51 52 52 56
188 187 191 191 185 184 189 191 197 181 174 159 154 150 152 136 128 115 111 155 161 161 168 175 194 184 240 284 281 230 210 208 191 176 160 155 126 101 76 57 51 54 58